When you browse on this site, cookies collect data to enhance your experience and personalize the content and advertising you see.
Visit our Privacy Policy to learn more. By continuing to use the site, you agree to this use of cookies and data.
  • en Belgique
  • Liste des pays
  • À 7 jours
  • Température de l'eau
  • Carte satellitaire
  • Carte météo
  • Widgets météo
  • user-avatar
    Se connecter

    Météo par heure à Louvain

    Ce jour, 23 Février, Samedi

    Heure Température Précipitation Vent Pression Humidité
    00:00 +7°C° 0 mm 3 m/s 772 mmHg 91%
    01:00 +7°C° 0 mm 2 m/s 772 mmHg 91%
    02:00 +6°C° 0 mm 2 m/s 772 mmHg 90%
    03:00 +6°C° 0 mm 2 m/s 772 mmHg 90%
    04:00 +6°C° 0 mm 2 m/s 772 mmHg 90%
    05:00 +5°C° 0 mm 2 m/s 772 mmHg 90%
    06:00 +5°C° 0 mm 2 m/s 772 mmHg 90%
    07:00 +6°C° 0 mm 2 m/s 772 mmHg 86%
    08:00 +7°C° 0 mm 3 m/s 772 mmHg 81%
    09:00 +8°C° 0 mm 3 m/s 772 mmHg 77%
    10:00 +9°C° 0 mm 3 m/s 772 mmHg 69%
    11:00 +11°C° 0 mm 3 m/s 772 mmHg 62%
    12:00 +12°C° 0 mm 3 m/s 772 mmHg 54%
    13:00 +13°C° 0 mm 3 m/s 772 mmHg 51%
    14:00 +13°C° 0 mm 3 m/s 772 mmHg 49%
    15:00 +15°C° 0 mm 2 m/s 771 mmHg 46%
    16:00 +13°C° 0 mm 2 m/s 771 mmHg 50%
    17:00 +10°C° 0 mm 2 m/s 771 mmHg 54%
    18:00 +9°C° 0 mm 2 m/s 772 mmHg 57%
    19:00 +8°C° 0 mm 2 m/s 772 mmHg 57%
    20:00 +7°C° 0 mm 2 m/s 772 mmHg 56%
    21:00 +6°C° 0 mm 2 m/s 772 mmHg 56%
    22:00 +6°C° 0 mm 2 m/s 772 mmHg 54%
    23:00 +5°C° 0 mm 2 m/s 772 mmHg 52%

    Demain, 24 Février, Dimanche

    Heure Température Précipitation Vent Pression Humidité
    00:00 +5°C° 0 mm 2 m/s 772 mmHg 50%
    01:00 +4°C° 0 mm 2 m/s 772 mmHg 48%
    02:00 +5°C° 0 mm 1 m/s 772 mmHg 47%
    03:00 +5°C° 0 mm 1 m/s 772 mmHg 46%
    04:00 +5°C° 0 mm 1 m/s 772 mmHg 44%
    05:00 +5°C° 0 mm 1 m/s 773 mmHg 43%
    06:00 +4°C° 0 mm 2 m/s 773 mmHg 42%
    07:00 +5°C° 0 mm 2 m/s 773 mmHg 40%
    08:00 +7°C° 0 mm 1 m/s 773 mmHg 39%
    09:00 +8°C° 0 mm 1 m/s 773 mmHg 38%
    10:00 +10°C° 0 mm 1 m/s 773 mmHg 35%
    11:00 +12°C° 0 mm 2 m/s 773 mmHg 33%
    12:00 +13°C° 0 mm 2 m/s 773 mmHg 30%
    13:00 +14°C° 0 mm 2 m/s 773 mmHg 32%
    14:00 +15°C° 0 mm 2 m/s 773 mmHg 34%
    15:00 +15°C° 0 mm 2 m/s 773 mmHg 36%
    16:00 +13°C° 0 mm 2 m/s 773 mmHg 42%
    17:00 +12°C° 0 mm 2 m/s 773 mmHg 47%
    18:00 +9°C° 0 mm 2 m/s 773 mmHg 52%
    19:00 +9°C° 0 mm 2 m/s 773 mmHg 53%
    20:00 +8°C° 0 mm 2 m/s 773 mmHg 55%
    21:00 +8°C° 0 mm 2 m/s 774 mmHg 57%
    22:00 +8°C° 0 mm 2 m/s 774 mmHg 55%
    23:00 +7°C° 0 mm 2 m/s 774 mmHg 54%

    Après-demain, 25 Février, Lundi

    Heure Température Précipitation Vent Pression Humidité
    00:00 +7°C° 0 mm 2 m/s 774 mmHg 52%
    01:00 +7°C° 0 mm 2 m/s 774 mmHg 51%
    02:00 +7°C° 0 mm 2 m/s 773 mmHg 50%
    03:00 +7°C° 0 mm 1 m/s 773 mmHg 49%
    04:00 +7°C° 0 mm 1 m/s 773 mmHg 49%
    05:00 +7°C° 0 mm 1 m/s 774 mmHg 50%
    06:00 +7°C° 0 mm 1 m/s 774 mmHg 50%
    07:00 +8°C° 0 mm 1 m/s 774 mmHg 49%
    08:00 +9°C° 0 mm 1 m/s 774 mmHg 48%
    09:00 +10°C° 0 mm 1 m/s 774 mmHg 48%
    10:00 +12°C° 0 mm 2 m/s 774 mmHg 46%
    11:00 +14°C° 0 mm 2 m/s 774 mmHg 44%
    12:00 +16°C° 0 mm 2 m/s 773 mmHg 41%
    13:00 +16°C° 0 mm 2 m/s 773 mmHg 43%
    14:00 +18°C° 0 mm 1 m/s 773 mmHg 44%
    15:00 +19°C° 0 mm 1 m/s 773 mmHg 46%
    16:00 +16°C° 0 mm 1 m/s 773 mmHg 51%
    17:00 +14°C° 0 mm 2 m/s 773 mmHg 56%
    18:00 +12°C° 0 mm 2 m/s 773 mmHg 61%
    19:00 +10°C° 0 mm 2 m/s 773 mmHg 64%
    20:00 +10°C° 0 mm 2 m/s 773 mmHg 67%
    21:00 +9°C° 0 mm 2 m/s 773 mmHg 70%
    22:00 +9°C° 0 mm 2 m/s 773 mmHg 70%
    23:00 +9°C° 0 mm 2 m/s 773 mmHg 70%

    26 Février, Mardi

    Heure Température Précipitation Vent Pression Humidité
    00:00 +9°C° 0 mm 2 m/s 772 mmHg 71%
    01:00 +8°C° 0 mm 2 m/s 772 mmHg 69%
    02:00 +8°C° 0 mm 2 m/s 772 mmHg 67%
    03:00 +9°C° 0 mm 1 m/s 772 mmHg 65%
    04:00 +8°C° 0 mm 1 m/s 772 mmHg 65%
    05:00 +8°C° 0 mm 1 m/s 771 mmHg 64%
    06:00 +8°C° 0 mm 1 m/s 771 mmHg 64%
    07:00 +9°C° 0 mm 1 m/s 771 mmHg 61%
    08:00 +10°C° 0 mm 1 m/s 772 mmHg 58%
    09:00 +12°C° 0 mm 1 m/s 772 mmHg 55%
    10:00 +13°C° 0 mm 1 m/s 772 mmHg 51%
    11:00 +15°C° 0 mm 1 m/s 771 mmHg 47%
    12:00 +17°C° 0 mm 2 m/s 771 mmHg 42%
    13:00 +17°C° 0 mm 2 m/s 771 mmHg 43%
    14:00 +18°C° 0 mm 2 m/s 770 mmHg 43%
    15:00 +18°C° 0 mm 2 m/s 770 mmHg 44%
    16:00 +16°C° 0 mm 2 m/s 770 mmHg 50%
    17:00 +15°C° 0 mm 2 m/s 770 mmHg 55%
    18:00 +13°C° 0 mm 2 m/s 770 mmHg 61%
    19:00 +12°C° 0 mm 2 m/s 770 mmHg 63%
    20:00 +12°C° 0 mm 2 m/s 770 mmHg 66%
    21:00 +10°C° 0 mm 2 m/s 770 mmHg 68%
    22:00 +9°C° 0 mm 2 m/s 770 mmHg 68%
    23:00 +9°C° 0 mm 2 m/s 769 mmHg 67%

    27 Février, Mercredi

    Heure Température Précipitation Vent Pression Humidité
    00:00 +9°C° 0 mm 2 m/s 769 mmHg 67%
    01:00 +8°C° 0 mm 2 m/s 769 mmHg 66%
    02:00 +8°C° 0 mm 2 m/s 769 mmHg 66%
    03:00 +7°C° 0 mm 2 m/s 768 mmHg 66%
    04:00 +7°C° 0 mm 2 m/s 768 mmHg 65%
    05:00 +7°C° 0 mm 2 m/s 768 mmHg 65%
    06:00 +6°C° 0 mm 2 m/s 768 mmHg 65%
    07:00 +8°C° 0 mm 2 m/s 768 mmHg 62%
    08:00 +9°C° 0 mm 2 m/s 768 mmHg 59%
    09:00 +10°C° 0 mm 2 m/s 767 mmHg 56%
    10:00 +13°C° 0 mm 2 m/s 767 mmHg 52%
    11:00 +15°C° 0 mm 2 m/s 767 mmHg 48%
    12:00 +16°C° 0 mm 2 m/s 767 mmHg 44%
    13:00 +17°C° 0 mm 2 m/s 766 mmHg 45%
    14:00 +17°C° 0 mm 2 m/s 766 mmHg 45%
    15:00 +18°C° 0 mm 2 m/s 765 mmHg 46%
    16:00 +16°C° 0 mm 2 m/s 765 mmHg 52%
    17:00 +14°C° 0 mm 2 m/s 765 mmHg 59%
    18:00 +12°C° 0 mm 2 m/s 765 mmHg 65%
    19:00 +12°C° 0 mm 2 m/s 765 mmHg 68%
    20:00 +10°C° 0 mm 2 m/s 765 mmHg 70%
    21:00 +9°C° 0 mm 2 m/s 765 mmHg 73%
    22:00 +9°C° 0 mm 2 m/s 765 mmHg 74%
    23:00 +9°C° 0 mm 3 m/s 764 mmHg 75%

    28 Février, Jeudi

    Heure Température Précipitation Vent Pression Humidité
    00:00 +8°C° 0 mm 3 m/s 764 mmHg 76%
    01:00 +8°C° 0 mm 3 m/s 764 mmHg 78%
    02:00 +8°C° 0 mm 3 m/s 764 mmHg 81%
    03:00 +7°C° 0 mm 3 m/s 764 mmHg 83%
    04:00 +7°C° 0 mm 3 m/s 764 mmHg 85%
    05:00 +7°C° 0 mm 3 m/s 764 mmHg 87%
    06:00 +7°C° 0 mm 3 m/s 764 mmHg 89%
    07:00 +8°C° 0 mm 3 m/s 764 mmHg 86%
    08:00 +9°C° 0 mm 3 m/s 764 mmHg 82%
    09:00 +10°C° 0 mm 3 m/s 764 mmHg 79%
    10:00 +11°C° 0 mm 3 m/s 764 mmHg 74%
    11:00 +13°C° 0 mm 4 m/s 763 mmHg 70%
    12:00 +14°C° 0 mm 4 m/s 763 mmHg 66%
    13:00 +15°C° 0 mm 4 m/s 763 mmHg 64%
    14:00 +15°C° 0 mm 4 m/s 763 mmHg 62%
    15:00 +15°C° 0 mm 4 m/s 763 mmHg 59%
    16:00 +13°C° 0 mm 3 m/s 763 mmHg 66%
    17:00 +12°C° 0 mm 3 m/s 763 mmHg 73%
    18:00 +10°C° 0 mm 2 m/s 763 mmHg 79%
    19:00 +9°C° 0 mm 2 m/s 763 mmHg 83%
    20:00 +9°C° 0 mm 2 m/s 763 mmHg 86%
    21:00 +8°C° 0 mm 2 m/s 763 mmHg 89%
    22:00 +8°C° 0 mm 2 m/s 763 mmHg 90%
    23:00 +8°C° 0 mm 1 m/s 763 mmHg 92%
    Voir plus